Погода в Бенцах

Россия / Тверская область     56°09′56″N   31°43′52″E
темп.,
°C
ветер,
м/с
пор.,
м/с
влажн.,
%
обл.,
%
осадки,
мм/ч
давл.,
гПа
погр.,
м
16 мая, вс
вс1600:00+10юз269718 0.0 1006126
03:00+9ююз249743 0.0 100783
06:00+10ююз249818 0.0 1008134
09:00+15юз248339 0.0 1010556
12:00+19зюз345936 0.1 10101424
15:00+21зюз344431 0.1 10102119
18:00+20юз245293 0.0 1011846
21:00+14ююз228195 0.0 101232
17 мая, пн
пн1700:00+12ююв119239 0.0 101310
03:00+11вюв239590 0.0 101351
06:00+11вюв279214 0.0 1013179
09:00+17юв4771100 0.0 1012530
12:00+20юв4659100 0.0 10111063
15:00+22вюв4651100 0.0 10091714
18:00+21вюв41071100 0.8 1007829
21:00+17в399389 4.0 1006183
18 мая, вт
вт1800:00+15в3129768 1.4 1005333
03:00+16вюв4129599 1.4 1004431
06:00+16вюв41195100 0.7 1003412
09:00+19вюв41186100 1.0 1002523
12:00+24юв61258100 0.0 10011703
15:00+22юв6156868 0.9 10011714
18:00+20ююв61370100 0.5 10011575
21:00+16ююв41190100 1.6 1002663
19 мая, ср
ср1900:00+14ю31097100 1.1 1002509
03:00+13ююв279941 1.1 1003235
06:00+13юв269997 0.0 1003252
09:00+16ююв358498 0.0 1004664
12:00+19ююв3472100 0.8 10031142
15:00+19юв237590 3.4 1003851
18:00+18вюв248377 3.8 1002526
21:00+15юз0193100 8.5 100111
20 мая, чт
чт2000:00+14с2499100 1.8 999142
03:00+13св249996 2.8 998130
06:00+13юв3899100 4.3 997556
09:00+12ю3597100 8.1 998452
12:00+9з4797100 2.4 1001557
15:00+9зсз61294100 3.4 10041067
18:00+8з51191100 0.2 10081279
21:00+9з4119029 0.3 1010815